DW2380 Paimio FI current weather conditions

sailwx.info

Wind from 360

Air temperature 12.2° C
Dewpoint 10.5° C

Last reported at 2016-May-30 21:46 UTC.
Time now 2016-May-30 22:15 UTC

Location: N 60°28' E 022°40'.
View on Google Maps.

See reports from other nearby stations

  
Tides and Currents Weather Stations Pressure Air Temp Water Temp Dewpoint Dewpoint Depression Visibility Wind Speed Wind Dir Waves Ship Positions
date/time (UTC)wind fromknots sea level pressurealtimeterstation pressurevisibilityair tempwater tempwave heightnotes
2016-May-30 21:46 360 12.2
2016-May-30 21:29 360 12.8
2016-May-30 21:14 360 13.3
2016-May-30 20:59 360 14.4
2016-May-30 20:44 360 15.0
2016-May-30 20:29 360 15.6
2016-May-30 20:13 360 16.7
2016-May-30 19:58 360 17.8
2016-May-30 19:43 360 18.3
2016-May-30 19:28 360 18.3
2016-May-30 19:13 360 2 gusting 6 18.3
2016-May-30 18:58 360 18.9
2016-May-30 18:43 360 20.0
2016-May-30 18:27 360 21.7
2016-May-30 18:12 360 21.7
2016-May-30 17:57 360 2 gusting 5 22.2
2016-May-30 17:42 360 22.8
2016-May-30 17:27 360 23.3
2016-May-30 17:12 360 1 gusting 6 23.9
2016-May-30 16:56 360 23.9
2016-May-30 16:41 360 0 gusting 5 24.4
2016-May-30 16:26 360 24.4
2016-May-30 16:11 360 24.4
2016-May-30 15:56 360 23.9
2016-May-30 15:41 360 1 gusting 6 23.9
2016-May-30 15:26 360 1 gusting 8 25.0
2016-May-30 15:11 360 24.4
2016-May-30 14:56 360 3 gusting 7 25.0
2016-May-30 14:41 360 25.6
2016-May-30 14:26 360 25.0
2016-May-30 14:11 360 2 gusting 6 23.9
2016-May-30 13:56 360 3 gusting 7 25.0
2016-May-30 13:41 360 25.0
2016-May-30 13:24 360 23.9
2016-May-30 13:09 360 3 gusting 6 25.0
2016-May-30 12:54 360 23.3
2016-May-30 12:39 360 23.3
2016-May-30 12:24 360 2 gusting 6 24.4
2016-May-30 12:08 360 6 gusting 9 25.6
2016-May-30 11:54 360 2 gusting 9 25.0
2016-May-30 11:38 360 5 gusting 7 25.0
2016-May-30 11:23 360 1 gusting 9 25.0
2016-May-30 11:08 360 2 gusting 7 24.4
2016-May-30 10:53 360 24.4
2016-May-30 10:38 360 1 gusting 6 23.3
2016-May-30 10:22 360 23.9
2016-May-30 10:07 360 0 gusting 6 23.9
2016-May-30 09:52 360 0 gusting 5 22.8
2016-May-30 09:37 360 1 gusting 4 23.3
2016-May-30 09:22 360 0 gusting 5 22.2
2016-May-30 09:07 360 1 gusting 8 22.8
2016-May-30 08:37 360 3 gusting 9 21.7
2016-May-30 08:21 360 5 gusting 7 21.7
2016-May-30 07:36 360 4 gusting 8 21.7
2016-May-30 07:21 360 5 gusting 10 21.1
2016-May-30 07:06 360 3 gusting 9 20.0
2016-May-30 06:51 360 5 gusting 11 20.0
2016-May-30 06:36 360 6 gusting 11 19.4
2016-May-30 06:21 360 2 gusting 7 18.9
2016-May-30 06:06 360 1 gusting 9 18.3
2016-May-30 05:49 360 1 gusting 9 17.8
2016-May-30 05:34 360 4 gusting 7 17.2
2016-May-30 05:19 360 1 gusting 6 16.1
2016-May-30 05:04 360 2 gusting 6 15.6
2016-May-30 04:49 360 1 gusting 6 14.4
2016-May-30 04:33 360 1 gusting 5 13.9
2016-May-30 04:18 360 12.8
2016-May-30 04:03 360 0 gusting 4 12.2
2016-May-30 03:48 360 11.7
2016-May-30 03:32 360 0 gusting 4 11.1
2016-May-30 03:17 360 1 gusting 5 10.6
2016-May-30 03:02 360 10.0
2016-May-30 02:47 360 9.4
2016-May-30 02:32 360 9.4
2016-May-30 02:17 360 9.4
2016-May-30 02:01 360 9.4
2016-May-30 01:46 360 9.4
2016-May-30 01:31 360 9.4
2016-May-30 01:16 360 9.4
2016-May-30 01:01 360 0 gusting 2 8.9
2016-May-30 00:46 360 8.9
2016-May-30 00:31 360 8.9
2016-May-30 00:16 360 8.3
2016-May-30 00:01 360 8.3
2016-May-29 23:46 360 8.3
2016-May-29 23:31 360 7.8
2016-May-29 23:16 360 8.3
2016-May-29 22:59 360 8.3
2016-May-29 22:44 360 8.3
2016-May-29 22:29 360 8.9
2016-May-29 22:14 360 0 gusting 1 8.9
2016-May-29 21:59 360 9.4
2016-May-29 21:44 360 9.4
2016-May-29 21:29 360 10.0
2016-May-29 21:13 360 10.0
2016-May-29 20:58 360 10.6
2016-May-29 20:43 360 11.1
2016-May-29 20:28 360 11.7
2016-May-29 20:13 360 12.2
2016-May-29 19:57 360 13.3
2016-May-29 19:42 360 13.9
2016-May-29 19:27 360 14.4
2016-May-29 19:12 360 15.0
2016-May-29 18:57 360 15.0
2016-May-29 18:42 360 15.6
2016-May-29 18:27 360 15.6
2016-May-29 18:12 360 0 gusting 5 15.6
2016-May-29 17:56 360 16.1
2016-May-29 17:41 360 16.1
2016-May-29 17:26 360 0 gusting 6 16.7
2016-May-29 17:11 360 2 gusting 6 16.7
2016-May-29 16:56 360 3 gusting 7 16.7
2016-May-29 16:41 360 2 gusting 6 16.7
2016-May-29 16:26 360 1 gusting 6 17.2
2016-May-29 16:11 360 2 gusting 6 17.2
2016-May-29 15:56 360 1 gusting 5 17.2
2016-May-29 15:41 360 1 gusting 4 17.2
2016-May-29 15:26 360 2 gusting 6 17.2
2016-May-29 15:09 360 1 gusting 6 17.2
2016-May-29 14:56 360 3 gusting 6 17.2
2016-May-29 14:39 360 1 gusting 7 17.2
2016-May-29 14:24 360 2 gusting 10 17.2
2016-May-29 14:09 360 1 gusting 7 17.2
2016-May-29 13:54 360 4 gusting 8 16.7
2016-May-29 13:39 360 5 gusting 10 16.7
2016-May-29 13:24 360 4 gusting 9 17.2
2016-May-29 13:08 360 3 gusting 6 17.2
2016-May-29 12:53 360 0 gusting 6 16.1
2016-May-29 12:38 360 4 gusting 6 16.7
2016-May-29 12:23 360 6 gusting 9 17.2
2016-May-29 12:08 360 3 gusting 9 16.1
2016-May-29 11:53 360 6 gusting 10 16.1
2016-May-29 11:38 360 1 gusting 6 16.1
2016-May-29 11:22 360 16.1
2016-May-29 11:07 360 6 gusting 11 15.6
2016-May-29 10:52 360 0 gusting 4 15.6
2016-May-29 10:37 360 4 gusting 7 14.4
2016-May-29 10:22 360 0 gusting 5 14.4
2016-May-29 10:06 360 2 gusting 6 13.9
2016-May-29 09:51 360 3 gusting 6 13.9
2016-May-29 09:36 360 1 gusting 6 13.9
2016-May-29 09:21 360 5 gusting 9 13.3
2016-May-29 09:06 360 0 gusting 5 13.3
2016-May-29 08:51 360 3 gusting 6 12.8
2016-May-29 08:36 360 2 gusting 8 12.8
2016-May-29 08:21 360 2 gusting 5 12.8
2016-May-29 08:06 360 4 gusting 6 12.8
2016-May-29 07:51 360 1 gusting 6 12.8
2016-May-29 07:36 360 0 gusting 3 12.2
2016-May-29 07:21 360 1 gusting 4 12.2
2016-May-29 07:06 360 2 gusting 7 12.2
2016-May-29 06:51 360 3 gusting 7 12.2
2016-May-29 06:34 360 1 gusting 4 12.2
2016-May-29 06:19 360 3 gusting 6 12.2
2016-May-29 06:04 360 3 gusting 7 12.2
2016-May-29 05:49 360 3 gusting 7 12.2
2016-May-29 05:34 360 4 gusting 8 11.7
2016-May-29 05:19 360 4 gusting 8 11.7
2016-May-29 05:04 360 3 gusting 7 11.7
2016-May-29 04:48 360 4 gusting 6 11.7
2016-May-29 04:33 360 1 gusting 5 11.7
2016-May-29 04:18 360 1 gusting 5 11.1
2016-May-29 04:03 360 1 gusting 5 11.1
2016-May-29 03:48 360 1 gusting 4 11.1
2016-May-29 03:33 360 0 gusting 3 11.1
2016-May-29 03:17 360 0 gusting 3 11.1
2016-May-29 03:02 360 11.1
2016-May-29 02:47 360 11.1
2016-May-29 02:32 360 11.1
2016-May-29 02:17 360 1 gusting 3 11.1
2016-May-29 02:02 360 1 gusting 4 11.1
2016-May-29 01:46 360 0 gusting 5 11.7
2016-May-29 01:31 360 0 gusting 4 11.7
2016-May-29 01:16 360 1 gusting 4 11.7
2016-May-29 01:01 360 11.7
2016-May-29 00:46 360 2 gusting 6 11.7
2016-May-29 00:31 360 1 gusting 6 12.2
2016-May-29 00:16 360 1 gusting 7 12.2
2016-May-29 00:01 360 2 gusting 6 12.2
2016-May-28 23:46 360 3 gusting 6 12.2
2016-May-28 23:31 360 3 gusting 6 12.2
2016-May-28 23:16 360 3 gusting 7 12.8
2016-May-28 23:01 360 4 gusting 7 12.8
2016-May-28 22:44 360 1 gusting 6 12.8
2016-May-28 22:29 360 3 gusting 6 13.3
2016-May-28 22:14 360 2 gusting 6 13.3